Weather History for New Richmond, WI

Change the Weather History Date:

Monday, September 24, 2012

  Actual Average (KMSP) Record (KMSP)
Temperature  
Mean Temperature 54 °F 58 °F  
Max Temperature 73 °F 68 °F 89 °F (1935)
Min Temperature 35 °F 49 °F 30 °F (1942)
Degree Days  
Heating Degree Days 11 8  
Month to date heating degree days 101  
Since 1 July heating degree days 120  
Cooling Degree Days 0 1  
Month to date cooling degree days 61  
Year to date cooling degree days 742  
Growing Degree Days 4 (Base 50)    
Moisture  
Dew Point 33 °F    
Average Humidity 52    
Maximum Humidity 87    
Minimum Humidity 22    
Precipitation  
Precipitation 0.00 in 0.10 in 1.06 in (1934)
Month to date precipitation 2.49  
Year to date precipitation 24.66  
Snow  
Snow 0.00 in 0.00 in 0.40 in (1985)
Month to date snowfall 0.0  
Since 1 July snowfall 0.0  
Since 1 September snowfall 0.0  
Snow Depth -    
Sea Level Pressure  
Sea Level Pressure 29.90 in    
Wind  
Wind Speed 9 mph (SW)    
Max Wind Speed 22 mph    
Max Gust Speed 29 mph    
Visibility 10 miles    
Events      
T = Trace of Precipitation, MM = Missing Value Source: NWS Daily Summary

Daily Weather History Graph

Daily Weather History Graph

Search for Another Location

Airport:

Trip Planner

Search our weather history database for the weather conditions in past years. The results will help you decide how hot, cold, wet, or windy it might be!

Date:

Astronomy

Sep. 24, 2012 Rise Set
Actual Time 7:00 AM CDT 7:02 PM CDT
Civil Twilight 6:30 AM CDT 7:32 PM CDT
Nautical Twilight 5:56 AM CDT 8:06 PM CDT
Astronomical Twilight 5:21 AM CDT 8:41 PM CDT
Moon 4:01 PM CDT (9/24) 1:03 AM CDT (9/24)
Length of Visible Light 13h 01m
Length of Day
12h 02m
Waxing Gibbous, 71% of the Moon is Illuminated
Sep 24
Waxing Gibbous
Sep 29
Full
Oct 8
Last Quarter
Oct 15
New
Oct 21
First Quarter

Hourly Weather History & Observations

Time (CDT) Temp. Windchill Dew Point Humidity Pressure Visibility Wind Dir Wind Speed Gust Speed Precip Events Conditions
12:15 AM 39.2 °F 35.0 °F 32.0 °F 75% 30.14 in 10.0 mi SSW 5.8 mph - N/A   Clear
12:35 AM 37.4 °F 33.8 °F 32.0 °F 81% 30.14 in 10.0 mi SSW 4.6 mph - N/A   Clear
12:55 AM 37.4 °F 33.8 °F 32.0 °F 81% 30.14 in 10.0 mi SSW 4.6 mph - N/A   Clear
1:15 AM 37.4 °F 32.8 °F 32.0 °F 81% 30.13 in 10.0 mi SSW 5.8 mph - N/A   Clear
1:35 AM 37.4 °F 33.8 °F 32.0 °F 81% 30.13 in 10.0 mi SSW 4.6 mph - N/A   Clear
1:55 AM 37.4 °F 32.8 °F 32.0 °F 81% 30.12 in 10.0 mi SSW 5.8 mph - N/A   Clear
2:15 AM 37.4 °F 34.9 °F 32.0 °F 81% 30.12 in 10.0 mi SSW 3.5 mph - N/A   Clear
2:35 AM 37.4 °F 34.9 °F 32.0 °F 81% 30.11 in 10.0 mi SSW 3.5 mph - N/A   Clear
2:55 AM 35.6 °F 30.7 °F 32.0 °F 87% 30.11 in 10.0 mi SSW 5.8 mph - N/A   Clear
3:35 AM 35.6 °F 29.9 °F 32.0 °F 87% 30.10 in 10.0 mi SSW 6.9 mph - N/A   Clear
3:55 AM 35.6 °F 30.7 °F 32.0 °F 87% 30.09 in 10.0 mi SSW 5.8 mph - N/A   Clear
4:15 AM 35.6 °F 30.7 °F 32.0 °F 87% 30.08 in 10.0 mi SSW 5.8 mph - N/A   Clear
4:35 AM 35.6 °F 29.9 °F 30.2 °F 81% 30.07 in 10.0 mi SSW 6.9 mph - N/A   Clear
4:55 AM 35.6 °F 29.9 °F 32.0 °F 87% 30.06 in 10.0 mi SSW 6.9 mph - N/A   Clear
5:15 AM 35.6 °F 29.9 °F 30.2 °F 81% 30.05 in 10.0 mi SSW 6.9 mph - N/A   Clear
5:35 AM 35.6 °F 29.2 °F 32.0 °F 87% 30.04 in 10.0 mi SSW 8.1 mph - N/A   Clear
5:55 AM 35.6 °F 29.9 °F 30.2 °F 81% 30.04 in 10.0 mi SSW 6.9 mph - N/A   Clear
6:15 AM 35.6 °F 29.9 °F 30.2 °F 81% 30.03 in 10.0 mi SW 6.9 mph - N/A   Clear
6:35 AM 35.6 °F 29.9 °F 30.2 °F 81% 30.02 in 10.0 mi SW 6.9 mph - N/A   Clear
6:55 AM 35.6 °F 29.9 °F 30.2 °F 81% 30.02 in 10.0 mi SSW 6.9 mph - N/A   Clear
7:15 AM 35.6 °F 30.7 °F 30.2 °F 81% 30.00 in 10.0 mi SSW 5.8 mph - N/A   Clear
7:35 AM 37.4 °F 32.1 °F 32.0 °F 81% 30.00 in 10.0 mi SSW 6.9 mph - N/A   Clear
7:55 AM 41.0 °F 35.8 °F 32.0 °F 70% 29.99 in 10.0 mi SSW 8.1 mph - N/A   Clear
8:15 AM 42.8 °F 37.0 °F 32.0 °F 66% 29.98 in 10.0 mi SSW 10.4 mph - N/A   Clear
8:35 AM 44.6 °F 38.8 °F 30.2 °F 57% 29.97 in 10.0 mi SSW 11.5 mph - N/A   Clear
8:55 AM 46.4 °F 40.4 °F 30.2 °F 53% 29.95 in 10.0 mi SSW 13.8 mph - N/A   Clear
9:15 AM 50.0 °F - 30.2 °F 47% 29.94 in 10.0 mi SSW 15.0 mph 19.6 mph N/A   Clear
9:35 AM 51.8 °F - 32.0 °F 47% 29.93 in 10.0 mi SW 18.4 mph 26.5 mph N/A   Clear
9:55 AM 53.6 °F - 32.0 °F 44% 29.92 in 10.0 mi SW 15.0 mph 21.9 mph N/A   Clear
10:15 AM 55.4 °F - 32.0 °F 41% 29.90 in 10.0 mi SW 16.1 mph 23.0 mph N/A   Clear
10:35 AM 59.0 °F - 32.0 °F 36% 29.90 in 10.0 mi WSW 17.3 mph 23.0 mph N/A   Clear
10:55 AM 60.8 °F - 32.0 °F 34% 29.89 in 10.0 mi WSW 15.0 mph 23.0 mph N/A   Clear
11:15 AM 62.6 °F - 32.0 °F 32% 29.88 in 10.0 mi WSW 17.3 mph 28.8 mph N/A   Clear
11:35 AM 62.6 °F - 32.0 °F 32% 29.88 in 10.0 mi WSW 17.3 mph 23.0 mph N/A   Clear
11:55 AM 62.6 °F - 32.0 °F 32% 29.87 in 10.0 mi WSW 18.4 mph - N/A   Clear
12:35 PM 64.4 °F - 33.8 °F 32% 29.86 in 10.0 mi WSW 16.1 mph - N/A   Clear
12:55 PM 66.2 °F - 33.8 °F 30% 29.85 in 10.0 mi West 16.1 mph 19.6 mph N/A   Clear
1:15 PM 68.0 °F - 33.8 °F 28% 29.85 in 10.0 mi WSW 15.0 mph 21.9 mph N/A   Clear
1:35 PM 68.0 °F - 33.8 °F 28% 29.83 in 10.0 mi WSW 15.0 mph - N/A   Clear
1:55 PM 69.8 °F - 32.0 °F 25% 29.82 in 10.0 mi WSW 16.1 mph 23.0 mph N/A   Clear
2:15 PM 69.8 °F - 33.8 °F 27% 29.80 in 10.0 mi WSW 17.3 mph 25.3 mph N/A   Clear
2:35 PM 71.6 °F - 33.8 °F 25% 29.80 in 10.0 mi WSW 17.3 mph 26.5 mph N/A   Clear
2:55 PM 71.6 °F - 32.0 °F 23% 29.78 in 10.0 mi WSW 17.3 mph 24.2 mph N/A   Clear
3:15 PM 71.6 °F - 33.8 °F 25% 29.77 in 10.0 mi WSW 16.1 mph 25.3 mph N/A   Clear
3:35 PM 73.4 °F - 32.0 °F 22% 29.76 in 10.0 mi West 19.6 mph 23.0 mph N/A   Clear
3:55 PM 73.4 °F - 32.0 °F 22% 29.75 in 10.0 mi West 21.9 mph 26.5 mph N/A   Clear
4:15 PM 73.4 °F - 32.0 °F 22% 29.74 in 10.0 mi WSW 20.7 mph 26.5 mph N/A   Clear
4:35 PM 73.4 °F - 32.0 °F 22% 29.74 in 10.0 mi WSW 18.4 mph 25.3 mph N/A   Clear
4:55 PM 71.6 °F - 32.0 °F 23% 29.74 in 10.0 mi West 15.0 mph 24.2 mph N/A   Clear
5:15 PM 71.6 °F - 32.0 °F 23% 29.74 in 10.0 mi West 13.8 mph 20.7 mph N/A   Clear
5:35 PM 71.6 °F - 32.0 °F 23% 29.74 in 10.0 mi West 15.0 mph 20.7 mph N/A   Clear
5:55 PM 71.6 °F - 32.0 °F 23% 29.74 in 10.0 mi West 9.2 mph - N/A   Clear
6:15 PM 69.8 °F - 32.0 °F 25% 29.74 in 10.0 mi West 10.4 mph - N/A   Clear
6:55 PM 64.4 °F - 33.8 °F 32% 29.74 in 10.0 mi WSW 6.9 mph - N/A   Clear
7:15 PM 62.6 °F - 33.8 °F 34% 29.75 in 10.0 mi WSW 5.8 mph - N/A   Clear
7:55 PM 59.0 °F - 35.6 °F 42% 29.75 in 10.0 mi SW 3.5 mph - N/A   Clear
8:15 PM 55.4 °F - 35.6 °F 47% 29.75 in 10.0 mi SW 5.8 mph - N/A   Clear
8:35 PM 59.0 °F - 35.6 °F 42% 29.75 in 10.0 mi SSW 5.8 mph - N/A   Clear
8:55 PM 57.2 °F - 37.4 °F 48% 29.75 in 10.0 mi SSW 6.9 mph - N/A   Clear
9:15 PM 57.2 °F - 37.4 °F 48% 29.74 in 10.0 mi SSW 6.9 mph - N/A   Clear
9:35 PM 55.4 °F - 37.4 °F 51% 29.75 in 10.0 mi SSW 8.1 mph - N/A   Clear
9:55 PM 53.6 °F - 37.4 °F 54% 29.75 in 10.0 mi SW 5.8 mph - N/A   Clear
10:15 PM 55.4 °F - 37.4 °F 51% 29.75 in 10.0 mi SW 5.8 mph - N/A   Clear
10:35 PM 51.8 °F - 35.6 °F 54% 29.75 in 10.0 mi West 5.8 mph - N/A   Clear
10:55 PM 55.4 °F - 35.6 °F 47% 29.75 in 10.0 mi West 5.8 mph - N/A   Clear
11:15 PM 55.4 °F - 35.6 °F 47% 29.76 in 10.0 mi WNW 5.8 mph - N/A   Clear
11:35 PM 51.8 °F - 35.6 °F 54% 29.76 in 10.0 mi NNE 3.5 mph - N/A   Clear
11:55 PM 50.0 °F - 37.4 °F 62% 29.76 in 10.0 mi Calm Calm - N/A   Clear